Estació municipal de Aiguafreda (Osona, P.N. del Montseny)

Consulta les dades en temps real de l'estació municipal de Aiguafreda





Hora UTC 04:00
Temperatura 17.4 ºC
Sòl 15 cm 16.0 ºC
Humitat 90.7 %
Pressió 1020.6 hPa
Pluja 0.0 mm
Velocitat vent 0.0 km/h
Direcció vent NNE

Dades diàries 2026-09-02



Hora UTC (hivern +1h; estiu +2h)
Temperatura (ºC) Humitat (%) Pressió (hPa) Velocitat vent (km/h) Precipitació (mm)
Hora UTC Aire Sòl 15 cm Humitat Pressió Vel. Dir. Vel. Max Dir. Intent. màx 5 min.
00:05 18.6 17.3 87.5 1020.8 0.0 NNE 0.0 NNW 0.0
00:10 18.5 17.3 87.6 1020.8 0.0 NNE 0.0 NW 0.0
00:15 18.5 17.3 87.6 1020.8 0.0 NNE 0.0 NNW 0.0
00:20 18.5 17.3 87.6 1020.8 0.0 NNE 0.0 N 0.0
00:25 18.5 17.2 87.7 1020.8 0.0 NNE 0.0 NW 0.0
00:30 18.4 17.2 87.7 1020.7 0.0 NNE 0.0 NW 0.0
00:35 18.4 17.1 87.8 1020.8 0.0 NNE 0.0 ENE 0.0
00:40 18.4 17.1 87.9 1020.8 0.0 NNE 0.0 NNW 0.0
00:45 18.3 17.0 87.9 1020.8 0.0 NNE 0.0 NNW 0.0
00:50 18.3 16.9 88.1 1020.8 0.0 NNE 0.0 NW 0.0
00:55 18.2 16.9 88.3 1020.8 0.0 NNE 0.0 NW 0.0
01:00 18.1 16.8 88.4 1020.8 0.0 NNE 0.0 NW 0.0
01:05 18.1 16.9 88.6 1020.8 0.0 NNE 0.0 SSE 0.0
01:10 18.1 16.8 88.6 1020.8 0.0 NNE 0.0 ESE 0.0
01:15 18.1 16.9 88.7 1020.8 0.0 NNE 0.0 SSE 0.0
01:20 18.1 16.9 88.7 1020.7 0.0 NNE 0.0 SW 0.0
01:25 18.1 16.9 88.7 1020.6 0.0 NNE 0.0 SW 0.0
01:30 18.0 16.8 88.6 1020.5 0.0 NNE 0.0 NW 0.0
01:35 18.0 16.8 88.7 1020.5 0.0 NNE 0.0 NW 0.0
01:40 17.9 16.8 89.0 1020.4 0.0 NNE 0.0 NW 0.0
01:45 18.0 16.8 89.2 1020.5 0.0 NNE 0.0 NW 0.0
01:50 18.0 17.0 89.2 1020.6 0.7 NNW 8.8 0.0
01:55 18.0 17.0 89.2 1020.5 0.0 NNE 0.0 NE 0.0
02:00 18.0 17.0 89.0 1020.6 0.2 SE 6.1 SSE 0.0
02:05 18.1 17.0 89.3 1020.5 0.3 SE 6.1 SSE 0.0
02:10 18.1 17.0 88.9 1020.5 0.0 NNE 0.0 SE 0.0
02:15 18.1 16.9 88.7 1020.6 0.0 NNE 0.0 SW 0.0
02:20 18.1 16.9 88.6 1020.5 0.0 NNE 0.0 S 0.0
02:25 18.0 16.8 88.6 1020.5 0.0 NNE 0.0 S 0.0
02:30 17.9 16.7 88.9 1020.5 0.0 NNE 0.0 S 0.0
02:35 17.9 16.6 89.1 1020.6 0.0 NNE 0.0 S 0.0
02:40 17.8 16.5 89.5 1020.6 0.0 NNE 0.0 W 0.0
02:45 17.8 16.6 89.6 1020.6 0.0 NNE 0.0 WSW 0.0
02:50 17.8 16.6 89.6 1020.6 0.0 NNE 0.0 NNW 0.0
02:55 17.8 16.5 89.6 1020.6 0.0 NNE 0.0 SSE 0.0
03:00 17.7 16.4 89.8 1020.7 0.0 NNE 0.0 SSE 0.0
03:05 17.7 16.3 89.9 1020.6 0.0 NNE 0.0 SSE 0.0
03:10 17.6 16.3 90.1 1020.6 0.0 NNE 0.0 NE 0.0
03:15 17.6 16.3 90.3 1020.7 0.0 NNE 0.0 W 0.0
03:20 17.6 16.2 90.2 1020.6 0.0 NNE 0.0 W 0.0
03:25 17.6 16.2 90.3 1020.6 0.0 NNE 0.0 SSE 0.0
03:30 17.5 16.2 90.4 1020.7 0.0 NNE 0.0 SE 0.0
03:35 17.5 16.1 90.4 1020.7 0.0 NNE 0.0 SE 0.0
03:40 17.5 16.1 90.4 1020.7 0.0 NNE 0.0 SE 0.0
03:45 17.4 16.0 90.6 1020.6 0.0 NNE 0.0 SE 0.0
03:50 17.4 16.1 90.8 1020.6 0.0 NNE 0.0 SE 0.0
03:55 17.4 16.1 90.7 1020.6 0.0 NNE 0.0 SE 0.0
04:00 17.4 16.0 90.7 1020.6 0.0 NNE 0.0 SE 0.0
Màxima 18.6 17.3 90.8 1020.8 0.7 NNW 8.8 0.0
Mínima 17.4 16.0 87.5 1020.4
Total 0.0